Weather reports worldwide

Advertisment
Auch, France (7622): temperature & dewpoint: 26.06.2020 07:00:00 - 02.07.2020 07:00:00 (CEST)Auch, France (7622): temperature 5cm: 26.06.2020 07:00:00 - 02.07.2020 07:00:00 (CEST)Auch, France (7622): temperature -20cm & temperature -100cm: 26.06.2020 07:00:00 - 02.07.2020 07:00:00 (CEST)Auch, France (7622): wind speed & gusts: 26.06.2020 07:00:00 - 02.07.2020 07:00:00 (CEST)Auch, France (7622): wind direction: 26.06.2020 07:00:00 - 02.07.2020 07:00:00 (CEST)Auch, France (7622): reduced air pressure: 26.06.2020 07:00:00 - 02.07.2020 07:00:00 (CEST)Auch, France (7622): visibility: 26.06.2020 07:00:00 - 02.07.2020 07:00:00 (CEST)Auch, France (7622): sunshine duration: 26.06.2020 07:00:00 - 02.07.2020 07:00:00 (CEST)Auch, France (7622): precipitation: 26.06.2020 07:00:00 - 02.07.2020 07:00:00 (CEST)
Date & Time tt [°C] td [°C] tt 5cm [°C] tt -20cm [°C] tt -100cm [°C] ff [km/h] ff [kn] fx [km/h] fx [kn] dd ppp [hPa] vv [km] sd [min] rr [mm]
02.07.2020 07:00:00 18,6 14,7 18,2 23,0 19,8 10 5 13 7 N 1016,8 20 0 0,0
02.07.2020 06:00:00 18,7 14,6 18,3 23,0 19,7 9 5 16 9 N 1016,8 20 0 0,0
02.07.2020 05:00:00 19,1 15,8 18,6 23,1 19,7 8 4 16 9 N 1016,6 20 0 0,0
02.07.2020 04:00:00 19,5 16,7 19,3 23,2 19,7 11 6 23 12 NNW 1016,5 20 0 0,0
02.07.2020 03:00:00 20,0 17,0 19,8 23,3 19,7 13 7 21 12 NNW 1016,6 20 0 0,0
02.07.2020 02:00:00 20,5 17,3 20,0 23,4 19,7 8 4 12 6 NW 1016,7 20 0 0,0
02.07.2020 01:00:00 20,8 17,2 20,3 23,4 19,7 7 4 19 10 NW 1016,7 20 0 0,0
02.07.2020 00:00:00 21,1 17,5 20,5 23,5 19,7 10 6 18 10 NW 1016,5 20 0 0,0
01.07.2020 23:00:00 21,0 17,8 19,9 23,5 19,7 8 4 14 8 NW 1016,3 20 0 0,0
01.07.2020 22:00:00 21,6 17,6 21,2 23,5 19,7 6 3 16 9 WNW 1015,7 20 0 0,0
01.07.2020 21:00:00 22,3 17,4 22,6 23,5 19,8 8 5 20 11 NW 1015,4 20 0 0,0
01.07.2020 20:00:00 23,2 17,4 24,6 23,4 19,7 15 8 26 14 NW 1014,9 20 28 0,0
01.07.2020 19:00:00 23,8 18,0 27,0 23,3 19,7 15 8 31 17 NW 1014,7 20 47 0,0
01.07.2020 18:00:00 24,4 18,1 27,0 23,1 19,7 19 10 33 18 NW 1014,7 20 19 0,0
01.07.2020 17:00:00 25,9 18,1 29,0 22,9 19,7 16 9 27 15 WNW 1014,4 20 43 0,0
01.07.2020 16:00:00 25,6 18,5 29,2 22,7 19,7 11 6 22 12 NW 1014,0 20 36 0,0
01.07.2020 15:00:00 25,0 17,5 28,0 22,6 19,7 6 4 27 14 W 1013,6 20 10 0,0
01.07.2020 14:00:00 24,8 18,5 28,1 22,5 19,7 14 8 30 16 NW 1013,6 20 36 0,0
01.07.2020 13:00:00 24,5 18,7 26,6 22,4 19,7 18 10 28 15 NW 1013,3 19 47 0,0
01.07.2020 12:00:00 21,7 18,5 19,7 22,4 19,7 12 7 24 13 WSW 1013,2 19 15 0,2
01.07.2020 11:00:00 20,0 18,5 19,5 22,4 19,7 9 5 23 12 S 1011,9 16 0 0,2
01.07.2020 10:00:00 21,0 17,4 21,1 22,5 19,7 15 8 22 12 SW 1013,4 20 22 0,0
01.07.2020 09:00:00 21,6 17,0 19,7 22,6 19,7 5 3 16 9 W 1012,1 20 53 0,0
01.07.2020 08:00:00 18,4 15,3 17,7 22,7 19,7 2 1 9 5 SSE 1011,9 20 0 0,0
01.07.2020 07:00:00 17,2 15,7 14,1 22,9 19,7 3 2 5 3 N 1011,1 20 0 0,0
01.07.2020 06:00:00 16,2 14,4 13,7 23,0 19,7 3 2 7 4 S 1011,2 20 0 0,0
01.07.2020 05:00:00 16,7 14,5 14,1 23,1 19,7 3 2 9 5 SSW 1011,2 20 0 0,0
01.07.2020 04:00:00 17,7 15,0 14,7 23,2 19,7 7 4 12 6 N 1011,0 20 0 0,0
01.07.2020 03:00:00 18,7 15,4 15,7 23,3 19,7 3 2 5 3 N 1011,5 20 0 0,0
01.07.2020 02:00:00 20,0 15,2 18,2 23,4 19,7 0 0 9 5 N 1012,0 20 0 0,0
01.07.2020 01:00:00 20,4 15,0 17,7 23,5 19,7 4 2 7 4 ENE 1012,0 20 0 0,0
01.07.2020 00:00:00 20,1 15,5 17,8 23,6 19,7 0 0 4 2 N 1013,2 20 0 0,0
30.06.2020 23:00:00 20,9 15,2 17,2 23,6 19,7 0 0 4 2 N 1012,8 20 0 0,0
30.06.2020 22:00:00 23,6 16,4 19,0 23,6 19,7 0 0 5 3 N 1012,3 20 0 0,0
30.06.2020 21:00:00 27,4 13,3 28,2 23,5 19,7 4 2 10 5 E 1011,7 20 34 0,0
30.06.2020 20:00:00 28,2 12,5 32,5 23,3 19,7 6 3 14 8 SSE 1012,1 20 60 0,0
30.06.2020 19:00:00 28,6 11,6 34,8 23,1 19,7 5 3 18 10 E 1012,3 20 60 0,0
30.06.2020 18:00:00 28,4 12,3 35,7 22,8 19,7 6 3 15 8 SW 1012,8 20 60 0,0
30.06.2020 17:00:00 28,4 12,3 35,4 22,6 19,7 4 2 16 9 WNW 1013,2 20 60 0,0
30.06.2020 16:00:00 27,1 12,7 35,7 22,3 19,7 8 4 17 9 N 1013,8 20 60 0,0
30.06.2020 15:00:00 26,6 11,9 34,6 22,0 19,7 7 4 17 9 NNW 1014,6 20 60 0,0
30.06.2020 14:00:00 25,3 12,8 33,2 21,8 19,7 5 3 13 7 NE 1015,3 20 60 0,0
30.06.2020 13:00:00 24,1 12,7 32,6 21,6 19,6 4 2 13 7 NNE 1015,8 20 60 0,0
30.06.2020 12:00:00 22,7 12,6 29,4 21,5 19,6 4 2 12 7 N 1016,3 20 60 0,0
30.06.2020 11:00:00 21,5 12,6 25,8 21,5 19,7 3 2 8 4 N 1016,9 20 60 0,0
30.06.2020 10:00:00 20,5 11,9 22,9 21,6 19,7 0 0 9 5 N 1017,4 20 60 0,0
30.06.2020 09:00:00 18,5 12,0 20,7 21,7 19,6 2 1 5 3 N 1017,7 20 60 0,0
30.06.2020 08:00:00 14,9 12,4 10,5 21,9 19,7 3 2 5 3 S 1018,0 20 56 0,0
30.06.2020 07:00:00 11,7 11,1 8,6 22,0 19,7 0 0 3 2 N 1018,4 20 0 0,0
30.06.2020 06:00:00 11,6 10,7 8,7 22,2 19,6 2 1 4 2 SSW 1018,3 20 0 0,0
30.06.2020 05:00:00 12,2 10,9 9,2 22,3 19,6 3 2 5 3 SSW 1018,5 20 0 0,0
30.06.2020 04:00:00 13,6 11,1 10,4 22,5 19,6 3 2 7 4 SSW 1018,7 20 0 0,0
30.06.2020 03:00:00 15,2 11,0 11,9 22,6 19,6 4 2 8 4 NW 1018,8 20 0 0,0
30.06.2020 02:00:00 16,3 10,8 13,1 22,7 19,6 3 1 6 4 N 1019,2 20 0 0,0
30.06.2020 01:00:00 17,6 11,6 16,2 22,8 19,6 3 2 14 8 WNW 1019,2 20 0 0,0
30.06.2020 00:00:00 18,8 12,5 16,0 22,9 19,6 7 4 14 8 WNW 1019,0 20 0 0,0
29.06.2020 23:00:00 19,5 14,1 17,1 23,0 19,6 3 2 9 5 WSW 1018,8 20 0 0,0
29.06.2020 22:00:00 19,7 14,3 17,0 23,0 19,6 3 2 10 6 SW 1018,4 20 0 0,0
29.06.2020 21:00:00 21,7 14,3 22,1 23,0 19,6 8 4 23 12 WSW 1018,5 20 29 0,0
29.06.2020 20:00:00 23,0 14,8 23,1 22,9 19,6 8 4 21 11 W 1018,4 20 25 0,0
29.06.2020 19:00:00 22,4 14,8 24,3 22,8 19,6 9 5 22 12 W 1018,5 20 0 0,0
29.06.2020 18:00:00 22,4 14,8 25,0 22,7 19,6 12 6 24 13 WSW 1018,9 20 5 0,0
29.06.2020 17:00:00 22,9 14,7 26,8 22,6 19,6 10 6 23 12 W 1019,3 20 31 0,0
29.06.2020 16:00:00 22,4 15,0 23,7 22,7 19,7 12 7 22 12 W 1019,9 20 3 0,0
29.06.2020 15:00:00 21,6 14,5 23,0 22,6 19,6 12 7 21 11 NW 1020,2 20 0 0,0
29.06.2020 14:00:00 21,2 15,1 23,1 22,5 19,5 8 5 22 12 W 1020,5 20 0 0,0
29.06.2020 13:00:00 21,2 14,6 21,8 22,6 19,6 9 5 20 11 W 1020,6 20 0 0,0
29.06.2020 12:00:00 21,0 15,1 22,9 22,6 19,6 9 5 19 10 NW 1020,6 20 0 0,0
29.06.2020 11:00:00 20,2 14,1 20,8 22,7 19,5 9 5 18 10 WNW 1020,6 20 0 0,0
29.06.2020 10:00:00 19,5 14,3 19,7 22,7 19,5 11 6 22 12 NW 1020,5 20 0 0,0
29.06.2020 09:00:00 19,3 15,0 19,5 22,8 19,5 10 6 22 12 WNW 1020,3 20 0 0,0
29.06.2020 08:00:00 19,6 17,0 19,2 22,9 19,5 8 4 17 9 WNW 1019,8 20 0 0,0
29.06.2020 07:00:00 19,3 16,7 18,9 23,0 19,5 5 3 12 6 WSW 1019,6 20 0 0,0
29.06.2020 06:00:00 19,2 16,4 18,6 23,1 19,5 6 3 10 6 SW 1019,3 20 0 0,0
29.06.2020 05:00:00 19,1 16,0 18,3 23,2 19,5 4 2 8 4 WSW 1019,2 20 0 0,0
29.06.2020 04:00:00 19,2 15,7 18,0 23,4 19,5 4 2 17 9 W 1019,2 20 0 0,0
29.06.2020 03:00:00 19,5 15,8 17,2 23,5 19,5 10 5 20 11 WNW 1019,3 20 0 0,0
29.06.2020 02:00:00 19,8 16,8 17,7 23,6 19,5 3 1 7 4 W 1019,1 20 0 0,0
29.06.2020 01:00:00 18,9 16,9 16,8 23,7 19,5 5 3 9 5 S 1019,2 20 0 0,0
29.06.2020 00:00:00 18,8 16,6 15,6 23,9 19,5 2 1 5 3 SW 1019,7 20 0 0,0
28.06.2020 23:00:00 19,3 16,3 15,9 23,9 19,5 2 1 5 3 W 1019,6 20 0 0,0
28.06.2020 22:00:00 22,1 16,8 18,7 23,9 19,5 2 1 9 5 W 1019,1 20 0 0,0
28.06.2020 21:00:00 23,3 16,8 23,1 23,9 19,4 8 5 18 10 NW 1018,9 20 0 0,0
28.06.2020 20:00:00 23,6 16,9 24,2 23,9 19,5 10 6 19 10 NW 1018,8 20 2 0,0
28.06.2020 19:00:00 24,6 16,8 25,8 23,8 19,4 9 5 18 10 WNW 1018,4 20 1 0,0
28.06.2020 18:00:00 25,2 16,6 27,9 23,7 19,4 11 6 20 11 WNW 1018,1 20 2 0,0
28.06.2020 17:00:00 25,6 16,4 28,7 23,5 19,4 11 6 20 11 NW 1018,2 20 8 0,0
28.06.2020 16:00:00 25,5 16,4 29,1 23,4 19,4 8 4 16 9 NW 1018,2 20 11 0,0
28.06.2020 15:00:00 25,2 15,5 29,7 23,2 19,4 8 4 17 9 WNW 1018,4 20 10 0,0
28.06.2020 14:00:00 25,7 16,0 31,3 23,1 19,4 4 2 16 8 NNW 1018,5 20 41 0,0
28.06.2020 13:00:00 24,4 15,9 28,5 23,1 19,4 6 3 14 8 NNW 1019,2 20 29 0,0
28.06.2020 12:00:00 22,6 15,9 26,8 23,1 19,3 9 5 16 9 N 1019,6 20 0 0,0
28.06.2020 11:00:00 21,7 15,8 21,8 23,2 19,4 6 3 11 6 N 1019,7 20 3 0,0
28.06.2020 10:00:00 20,3 15,1 20,4 23,3 19,4 5 3 13 7 N 1019,9 20 0 0,0
28.06.2020 09:00:00 19,9 15,3 20,2 23,4 19,3 9 5 16 9 N 1019,8 20 0 0,0
28.06.2020 08:00:00 19,8 15,2 19,5 23,5 19,4 11 6 20 11 N 1019,4 20 0 0,0
28.06.2020 07:00:00 19,8 16,4 19,5 23,6 19,3 11 6 22 12 NNW 1019,1 20 0 0,0
28.06.2020 06:00:00 20,8 16,6 19,7 23,7 19,3 10 6 17 9 NNW 1018,8 20 0 0,0
28.06.2020 05:00:00 20,9 17,7 19,5 23,8 19,3 0 0 6 3 N 1018,1 20 0 0,2
28.06.2020 04:00:00 21,5 17,1 20,5 24,0 19,3 3 2 9 5 NW 1017,9 20 0 0,0
28.06.2020 03:00:00 21,8 17,0 20,8 24,1 19,3 5 3 10 5 N 1017,5 20 0 0,0
28.06.2020 02:00:00 21,9 17,1 20,4 24,2 19,3 6 4 9 5 N 1017,6 20 0 0,0
28.06.2020 01:00:00 22,2 16,9 20,0 24,3 19,3 3 1 9 5 NE 1017,6 20 0 0,0
28.06.2020 00:00:00 22,6 17,7 19,6 24,3 19,3 4 2 9 5 NNE 1017,3 20 0 0,0
27.06.2020 23:00:00 22,6 18,4 20,5 24,4 19,2 2 1 4 2 WNW 1017,0 20 0 0,0
27.06.2020 22:00:00 23,8 18,2 20,8 24,4 19,3 2 1 8 4 SSW 1016,1 18 0 0,0
27.06.2020 21:00:00 26,1 16,9 25,1 24,4 19,3 6 3 15 8 NW 1015,6 20 0 0,0
27.06.2020 20:00:00 26,9 16,5 27,0 24,3 19,2 6 4 18 10 NW 1015,5 20 27 0,0
27.06.2020 19:00:00 28,4 17,0 29,2 24,1 19,2 10 5 19 10 NW 1015,3 20 34 0,0
27.06.2020 18:00:00 28,1 16,7 29,5 23,9 19,2 4 2 11 6 W 1015,3 20 7 0,0
27.06.2020 17:00:00 27,9 16,8 30,2 23,6 19,2 7 4 13 7 N 1015,4 20 30 0,0
27.06.2020 16:00:00 28,4 16,7 32,4 23,4 19,2 8 4 14 7 N 1015,4 20 54 0,0
27.06.2020 15:00:00 27,6 16,6 34,6 23,1 19,2 6 4 17 9 E 1015,6 20 60 0,0
27.06.2020 14:00:00 26,2 17,6 32,5 22,9 19,2 8 4 16 9 NE 1015,9 19 57 0,0
27.06.2020 13:00:00 24,8 18,0 29,2 22,8 19,2 5 3 16 9 ESE 1016,2 20 52 0,0
27.06.2020 12:00:00 23,3 18,6 26,5 22,8 19,2 5 3 12 7 N 1016,2 19 24 0,0
27.06.2020 11:00:00 22,2 18,8 22,8 22,8 19,1 3 2 9 5 N 1015,8 18 16 0,0
27.06.2020 10:00:00 20,5 18,3 21,7 22,8 19,1 3 2 9 5 W 1015,6 15 0 0,0
27.06.2020 09:00:00 20,0 17,8 21,3 22,9 19,1 2 1 8 4 E 1015,4 17 0 0,0
27.06.2020 08:00:00 19,8 17,8 18,8 23,1 19,2 0 0 5 3 N 1015,5 19 23 0,0
27.06.2020 07:00:00 18,7 17,0 18,2 23,1 19,1 0 0 8 4 N 1015,4 19 0 0,0
27.06.2020 06:00:00 18,9 17,4 18,4 23,2 19,1 4 2 6 3 WNW 1015,3 19 0 0,0
27.06.2020 05:00:00 19,3 17,6 18,7 23,3 19,1 0 0 8 5 N 1015,3 20 0 0,0
27.06.2020 04:00:00 19,5 17,6 18,8 23,4 19,1 3 2 9 5 WNW 1015,3 20 0 0,0
27.06.2020 03:00:00 19,8 17,6 19,1 23,5 19,1 6 4 14 7 NW 1015,4 20 0 0,0
27.06.2020 02:00:00 20,4 17,8 19,5 23,6 19,1 4 2 10 6 W 1015,1 20 0 0,0
27.06.2020 01:00:00 20,8 18,6 19,4 23,7 19,1 6 4 15 8 NW 1015,0 20 0 0,0
27.06.2020 00:00:00 20,4 19,1 18,4 23,8 19,1 4 2 10 6 NNW 1014,2 18 0 0,0
26.06.2020 23:00:00 19,5 18,0 18,6 23,8 19,1 0 0 24 13 N 1014,0 20 0 0,2
26.06.2020 22:00:00 21,2 18,9 19,6 23,9 19,0 11 6 30 16 SSE 1013,5 15 0 1,8
26.06.2020 21:00:00 24,0 19,5 22,9 23,8 19,0 10 5 19 10 WNW 1012,1 16 0 0,0
26.06.2020 20:00:00 24,8 19,6 23,6 23,8 19,0 10 5 21 11 WNW 1011,9 20 0 0,0
26.06.2020 19:00:00 25,8 19,9 24,3 23,6 19,0 10 6 21 11 WNW 1011,5 20 0 0,0
26.06.2020 18:00:00 26,6 20,2 25,0 23,5 19,0 14 8 24 13 NW 1011,7 19 10 0,4
26.06.2020 17:00:00 27,6 19,7 30,4 23,3 19,0 11 6 24 13 WNW 1012,0 20 33 0,0
26.06.2020 16:00:00 27,9 19,7 32,1 23,1 19,0 7 4 26 14 NNE 1012,3 20 52 0,0
26.06.2020 15:00:00 26,5 18,9 30,4 23,0 19,0 8 4 19 11 N 1012,9 20 14 0,0
26.06.2020 14:00:00 25,7 19,1 25,5 22,9 19,0 10 5 20 11 N 1013,2 17 42 0,0
26.06.2020 13:00:00 22,7 18,2 22,4 22,8 19,0 7 4 12 7 W 1014,1 20 2 0,2
26.06.2020 12:00:00 23,9 18,3 26,3 22,8 18,9 4 2 10 6 N 1014,1 18 33 0,0
26.06.2020 11:00:00 21,4 17,4 23,8 22,8 18,9 6 3 15 8 ENE 1014,9 10 8 0,0
26.06.2020 10:00:00 19,9 17,3 20,7 23,0 19,0 6 4 17 9 N 1015,6 14 0 0,0
26.06.2020 09:00:00 19,1 17,1 19,2 23,1 18,9 9 5 14 8 NNW 1015,9 20 0 0,0
26.06.2020 08:00:00 18,3 16,8 16,1 23,2 18,9 8 4 13 7 WNW 1015,9 20 7 0,0
26.06.2020 07:00:00 17,3 16,5 14,4 23,3 18,9 0 0 6 3 N 1015,7 20 0 0,0

tt = temperature
td = dewpoint
tt 5cm = temperature 5cm
tt -20cm = temperature -20cm
tt -100cm = temperature -100cm
ff = wind speed
fx = gusts
dd = wind direction
ppp = reduced air pressure
vv = visibility
sd = sunshine duration
rr = precipitation

Next stations